Roda de Ter - l'Esquerda





Hora UTC 22:05
Temperatura 7.2 ºC
Humitat 90.0 %
Pressió 1017.5 hPa
Pluja 0.0 mm
Velocitat vent 1.6 km/h
Direcció vent ENE

Dades diàries 2020-03-31



Hora UTC (hivern +1h; estiu +2h)
Temperatura (ºC) Humitat (%) Pressió (hPa) Velocitat vent (km/h) Precipitació (mm)
Hora UTC Aire Humitat Pressió Vel. Dir. Vel. Max Dir. Intent. màx 5 min.
00:05 5.4 91.0 1015.8 3.2 ENE 9.7 0.0
00:10 5.5 91.0 1015.8 4.8 ENE 9.7 0.0
00:15 5.6 91.0 1015.8 3.2 NE 8.0 0.0
00:20 5.6 90.0 1015.8 3.2 NE 8.0 0.0
00:25 5.7 90.0 1016.0 0.0 NNE 8.0 0.0
00:30 5.8 89.0 1015.9 0.0 NNE 6.4 0.0
00:35 5.8 89.0 1015.8 3.2 E 6.4 0.0
00:40 5.9 89.0 1015.7 3.2 E 4.8 0.0
00:45 5.9 89.0 1015.8 4.8 ENE 11.3 0.0
00:45 5.9 89.0 1015.7 4.8 ENE 11.3 0.0
00:55 5.9 89.0 1015.6 4.8 NE 9.7 0.0
01:00 6.0 88.0 1015.6 6.4 NE 9.7 0.0
01:05 6.1 88.0 1015.5 3.2 ENE 9.7 0.0
01:10 6.1 88.0 1015.5 6.4 ENE 11.3 0.0
01:15 6.1 88.0 1015.4 1.6 NE 11.3 0.0
01:20 6.1 88.0 1015.5 1.6 ENE 8.0 0.0
01:25 6.1 88.0 1015.3 3.2 NE 4.8 0.0
01:30 6.1 88.0 1015.2 4.8 NE 4.8 0.0
01:35 6.1 88.0 1015.2 1.6 NE 6.4 0.0
01:40 6.1 89.0 1015.1 1.6 NNE 6.4 0.0
01:45 6.0 89.0 1015.1 3.2 NE 6.4 0.0
01:45 6.0 89.0 1015.1 4.8 NE 6.4 0.0
01:55 5.9 89.0 1015.1 3.2 NNE 4.8 0.0
02:00 5.9 89.0 1015.0 1.6 NNE 3.2 0.0
02:05 5.9 89.0 1015.1 0.0 NNE 3.2 0.0
02:10 5.9 89.0 1015.0 3.2 NNE 3.2 0.0
02:15 6.0 88.0 1015.0 1.6 ENE 8.0 0.0
02:20 6.1 88.0 1015.1 0.0 ESE 8.0 0.0
02:25 6.1 88.0 1015.1 1.6 S 8.0 0.0
02:30 6.1 88.0 1015.2 4.8 E 9.7 0.0
02:35 6.2 87.0 1015.1 0.0 E 9.7 0.0
02:40 6.2 86.0 1015.1 0.0 E 6.4 0.0
02:45 6.2 86.0 1015.1 3.2 E 3.2 0.0
02:45 6.2 86.0 1015.1 0.0 E 3.2 0.0
02:55 6.2 86.0 1015.1 3.2 ENE 4.8 0.0
03:00 6.2 86.0 1015.2 1.6 E 4.8 0.0
03:05 6.2 86.0 1015.1 4.8 NE 9.7 0.0
03:10 6.1 86.0 1015.2 11.3 E 11.3 0.0
03:15 6.1 85.0 1015.0 6.4 E 11.3 0.0
03:20 6.1 84.0 1015.0 1.6 E 8.0 0.0
03:25 6.1 84.0 1015.1 0.0 E 12.9 0.0
03:30 6.1 84.0 1015.1 11.3 ESE 12.9 0.0
03:35 6.1 84.0 1015.0 3.2 ENE 11.3 0.0
03:40 6.1 84.0 1015.0 1.6 E 11.3 0.0
03:45 6.1 84.0 1015.1 3.2 ESE 11.3 0.0
03:45 6.1 84.0 1015.0 3.2 ENE 11.3 0.0
03:55 6.1 84.0 1015.2 4.8 ESE 14.5 0.0
04:00 6.1 84.0 1015.3 6.4 E 14.5 0.0
04:05 6.1 84.0 1015.4 4.8 E 12.9 0.0
04:10 6.2 83.0 1015.4 1.6 ESE 12.9 0.0
04:15 6.1 83.0 1015.4 6.4 E 14.5 0.0
04:20 6.1 83.0 1015.4 1.6 ESE 14.5 0.0
04:25 6.1 83.0 1015.4 8.0 SE 14.5 0.0
04:30 6.1 83.0 1015.3 8.0 E 14.5 0.0
04:35 6.1 83.0 1015.4 4.8 ESE 12.9 0.0
04:40 6.1 84.0 1015.3 6.4 E 12.9 0.0
04:45 5.9 84.0 1015.2 3.2 ESE 12.9 0.0
04:45 5.9 84.0 1015.2 8.0 ENE 12.9 0.0
04:55 6.0 84.0 1015.2 12.9 E 12.9 0.0
05:00 6.1 84.0 1015.2 1.6 E 11.3 0.0
05:05 5.9 84.0 1015.1 4.8 ENE 14.5 0.0
05:10 5.9 84.0 1015.0 3.2 NE 14.5 0.0
05:15 5.9 84.0 1015.0 3.2 ENE 16.1 0.0
05:20 5.9 84.0 1015.0 3.2 ESE 16.1 0.0
05:25 5.9 84.0 1015.1 4.8 E 8.0 0.0
05:30 5.9 84.0 1015.2 1.6 ENE 6.4 0.0
05:35 5.9 84.0 1015.2 1.6 E 9.7 0.0
05:40 6.0 84.0 1015.3 0.0 ENE 9.7 0.0
05:45 6.1 83.0 1015.5 0.0 ENE 4.8 0.0
05:45 6.0 84.0 1015.5 1.6 SE 4.8 0.0
05:55 6.1 84.0 1015.6 3.2 NE 6.4 0.0
06:00 6.2 83.0 1015.8 1.6 ENE 6.4 0.0
06:05 6.3 83.0 1015.8 0.0 E 9.7 0.0
06:10 6.3 83.0 1015.9 3.2 E 6.4 0.0
06:15 6.3 83.0 1016.1 3.2 E 9.7 0.0
06:20 6.3 83.0 1016.1 3.2 NE 9.7 0.0
06:25 6.4 83.0 1016.2 3.2 ENE 8.0 0.0
06:30 6.5 82.0 1016.1 4.8 ENE 8.0 0.0
06:35 6.6 83.0 1016.2 1.6 E 6.4 0.0
06:40 6.6 83.0 1016.0 1.6 NE 8.0 0.0
06:45 6.7 83.0 1015.9 3.2 ENE 8.0 0.0
06:45 6.7 83.0 1015.9 4.8 NE 8.0 0.0
06:55 6.8 84.0 1015.8 8.0 E 9.7 0.0
07:00 6.8 83.0 1015.8 4.8 E 9.7 0.0
07:05 6.9 83.0 1016.0 3.2 SE 8.0 0.0
07:10 6.9 83.0 1015.8 3.2 ENE 8.0 0.0
07:15 6.9 83.0 1015.8 0.0 ENE 6.4 0.0
07:20 7.1 83.0 1015.8 0.0 NNE 4.8 0.0
07:25 7.2 82.0 1015.8 1.6 ENE 4.8 0.0
07:30 7.3 83.0 1015.7 4.8 NNE 6.4 0.0
07:35 7.4 82.0 1015.8 3.2 NNE 6.4 0.0
07:40 7.4 82.0 1015.8 1.6 NE 6.4 0.0
07:45 7.6 82.0 1016.0 1.6 NE 4.8 0.0
07:45 7.6 81.0 1016.0 3.2 N 4.8 0.0
07:55 7.7 81.0 1016.0 0.0 N 4.8 0.0
08:00 8.1 81.0 1016.0 3.2 NNE 4.8 0.0
08:05 8.3 80.0 1016.0 1.6 NE 4.8 0.0
08:10 8.4 80.0 1016.0 1.6 NE 9.7 0.0
08:15 8.4 80.0 1016.0 1.6 E 9.7 0.0
08:20 8.6 80.0 1016.1 4.8 ESE 8.0 0.0
08:25 8.9 80.0 1016.1 1.6 ESE 6.4 0.0
08:30 9.6 80.0 1016.1 3.2 E 14.5 0.0
08:35 10.6 80.0 1016.1 8.0 E 16.1 0.0
08:40 10.8 77.0 1016.1 8.0 ENE 16.1 0.0
08:45 10.6 74.0 1016.2 3.2 NNE 14.5 0.0
08:45 10.3 77.0 1016.1 3.2 ENE 14.5 0.0
08:55 10.0 77.0 1016.1 11.3 E 12.9 0.0
09:00 9.7 77.0 1016.0 14.5 NE 14.5 0.0
09:05 9.6 78.0 1016.0 6.4 ESE 16.1 0.0
09:10 9.6 78.0 1016.0 6.4 NE 16.1 0.0
09:15 9.5 78.0 1016.0 4.8 NE 14.5 0.0
09:20 9.4 78.0 1016.0 4.8 ENE 11.3 0.0
09:25 9.6 79.0 1015.8 1.6 ENE 11.3 0.0
09:30 9.5 78.0 1016.1 8.0 E 16.1 0.0
09:35 9.6 79.0 1016.1 8.0 ENE 16.1 0.0
09:40 9.5 79.0 1016.1 6.4 ENE 14.5 0.0
09:45 9.6 78.0 1016.0 6.4 NE 14.5 0.0
09:45 9.6 79.0 1015.9 1.6 NE 14.5 0.0
09:55 9.6 78.0 1016.1 3.2 ESE 16.1 0.0
10:00 9.7 79.0 1016.0 4.8 NE 16.1 0.0
10:05 9.7 78.0 1016.2 3.2 ENE 11.3 0.0
10:10 9.7 78.0 1016.1 3.2 ENE 9.7 0.0
10:15 9.8 78.0 1016.2 1.6 ENE 9.7 0.0
10:20 9.9 77.0 1016.2 1.6 SE 9.7 0.0
10:25 9.9 78.0 1016.1 3.2 NE 9.7 0.0
10:30 9.8 78.0 1016.1 3.2 ESE 6.4 0.0
10:35 9.8 78.0 1016.1 12.9 SE 14.5 0.0
10:40 9.7 78.0 1016.0 9.7 E 19.3 0.0
10:45 9.7 78.0 1015.9 4.8 E 19.3 0.0
10:45 9.7 79.0 1016.0 3.2 ESE 19.3 0.0
10:55 9.9 79.0 1016.0 3.2 ENE 14.5 0.0
11:00 9.9 78.0 1015.9 6.4 ENE 9.7 0.0
11:05 9.9 79.0 1015.9 3.2 NE 11.3 0.0
11:10 10.0 79.0 1016.0 1.6 E 9.7 0.0
11:15 9.9 79.0 1015.8 4.8 NE 11.3 0.0
11:20 10.1 79.0 1015.8 1.6 ESE 11.3 0.0
11:25 10.1 79.0 1015.7 1.6 ENE 9.7 0.0
11:30 10.2 80.0 1015.6 3.2 NE 9.7 0.0
11:35 10.2 79.0 1015.7 3.2 ESE 9.7 0.0
11:40 10.3 78.0 1015.7 1.6 SE 9.7 0.0
11:45 10.3 78.0 1015.6 4.8 E 14.5 0.0
11:45 10.2 79.0 1015.7 1.6 SE 14.5 0.0
11:55 0.0
12:00 10.4 78.0 1015.6 3.2 ESE 12.9 0.0
12:05 10.8 78.0 1015.7 3.2 SE 12.9 0.0
12:10 10.9 78.0 1015.7 11.3 ESE 11.3 0.0
12:15 10.9 76.0 1015.4 12.9 SE 22.5 0.0
12:20 10.8 77.0 1015.7 6.4 ESE 22.5 0.0
12:25 10.8 76.0 1015.7 1.6 E 16.1 0.0
12:30 10.8 77.0 1015.6 3.2 SE 16.1 0.0
12:35 10.8 78.0 1015.6 3.2 NE 14.5 0.0
12:40 10.7 77.0 1015.7 3.2 ESE 14.5 0.0
12:45 10.6 77.0 1015.6 4.8 ESE 12.9 0.0
12:45 10.6 76.0 1015.6 3.2 E 12.9 0.0
12:55 10.6 76.0 1015.6 1.6 E 12.9 0.0
13:00 10.4 77.0 1015.7 1.6 E 9.7 0.0
13:05 10.3 77.0 1015.7 11.3 ESE 14.5 0.0
13:10 10.2 78.0 1015.6 9.7 E 19.3 0.0
13:15 10.1 78.0 1015.5 6.4 ESE 14.5 0.0
13:20 10.1 78.0 1015.6 6.4 SE 17.7 0.0
13:25 10.1 78.0 1015.6 3.2 ESE 17.7 0.0
13:30 10.1 78.0 1015.6 6.4 E 14.5 0.0
13:35 10.1 79.0 1015.8 6.4 ESE 12.9 0.0
13:40 10.2 78.0 1015.7 11.3 ESE 14.5 0.0
13:45 10.2 78.0 1015.7 8.0 E 16.1 0.0
13:45 10.2 78.0 1015.6 3.2 ESE 16.1 0.0
13:55 10.2 78.0 1015.5 1.6 SSE 16.1 0.0
14:00 10.2 78.0 1015.5 4.8 ESE 12.9 0.0
14:05 10.2 77.0 1015.4 9.7 ESE 16.1 0.0
14:10 10.3 78.0 1015.2 6.4 E 16.1 0.0
14:15 10.3 77.0 1015.1 4.8 ESE 12.9 0.0
14:20 10.4 77.0 1015.1 3.2 E 14.5 0.0
14:25 10.3 77.0 1015.1 9.7 ENE 14.5 0.0
14:30 10.3 78.0 1015.3 4.8 E 12.9 0.0
14:35 10.3 77.0 1015.2 3.2 ESE 12.9 0.0
14:40 10.4 77.0 1015.3 4.8 ESE 12.9 0.0
14:45 10.4 77.0 1015.2 4.8 ESE 12.9 0.0
14:50 10.6 77.0 1015.3 3.2 ESE 11.3 0.0
14:55 10.7 76.0 1015.2 0.0 ENE 9.7 0.0
15:00 10.7 76.0 1015.3 8.0 ENE 8.0 0.0
15:05 10.8 76.0 1015.3 6.4 ENE 12.9 0.0
15:10 10.9 75.0 1015.3 12.9 ENE 14.5 0.0
15:15 10.8 75.0 1015.3 3.2 E 14.5 0.0
15:15 10.8 75.0 1015.3 1.6 E 14.5 0.0
15:25 10.9 76.0 1015.3 4.8 ENE 14.5 0.0
15:30 10.8 75.0 1015.3 6.4 E 19.3 0.0
15:35 10.8 76.0 1015.4 4.8 SE 14.5 0.0
15:40 10.8 76.0 1015.3 6.4 ESE 16.1 0.0
15:45 10.7 77.0 1015.2 11.3 ESE 16.1 0.0
15:50 10.5 77.0 1015.3 4.8 ENE 16.1 0.0
15:55 10.3 78.0 1015.4 4.8 NE 16.1 0.0
16:00 10.2 79.0 1015.2 3.2 ENE 11.3 0.0
16:05 10.2 78.0 1015.3 11.3 E 14.5 0.0
16:10 10.2 77.0 1015.3 4.8 ENE 14.5 0.0
16:15 10.2 77.0 1015.3 0.0 E 14.5 0.0
16:15 10.2 78.0 1015.3 4.8 E 6.4 0.0
16:25 10.2 78.0 1015.3 4.8 ENE 11.3 0.0
16:30 10.1 78.0 1015.3 12.9 ENE 14.5 0.0
16:35 10.1 78.0 1015.3 4.8 ENE 14.5 0.0
16:40 10.1 78.0 1015.3 4.8 E 9.7 0.0
16:45 10.0 78.0 1015.4 3.2 ENE 11.3 0.0
16:50 10.0 78.0 1015.4 1.6 E 11.3 0.0
16:55 10.0 78.0 1015.5 4.8 SE 6.4 0.0
17:00 10.0 78.0 1015.5 3.2 ESE 6.4 0.0
17:05 9.9 78.0 1015.7 4.8 ESE 12.9 0.0
17:10 9.9 78.0 1015.6 6.4 ESE 12.9 0.0
17:15 9.8 78.0 1015.7 1.6 SE 12.9 0.0
17:15 9.8 79.0 1015.7 6.4 ENE 12.9 0.0
17:25 9.6 79.0 1015.6 4.8 E 20.9 0.0
17:30 9.5 79.0 1015.8 3.2 E 20.9 0.0
17:35 9.4 80.0 1015.8 4.8 NE 19.3 0.0
17:40 9.3 80.0 1015.8 4.8 ESE 19.3 0.0
17:45 9.3 81.0 1015.9 6.4 ENE 19.3 0.0
17:50 9.2 81.0 1015.9 4.8 E 14.5 0.0
17:55 9.1 82.0 1015.9 1.6 E 14.5 0.0
18:00 8.9 82.0 1016.0 4.8 ENE 9.7 0.0
18:05 8.8 83.0 1016.2 4.8 ESE 11.3 0.0
18:10 8.7 84.0 1016.2 3.2 S 11.3 0.0
18:15 8.7 84.0 1016.4 1.6 ENE 11.3 0.0
18:15 8.6 84.0 1016.4 4.8 E 11.3 0.0
18:25 8.6 84.0 1016.5 0.0 ESE 9.7 0.2
18:30 8.5 85.0 1016.5 1.6 ESE 9.7 0.0
18:35 8.4 85.0 1016.6 1.6 E 4.8 0.0
18:40 8.3 85.0 1016.8 3.2 E 6.4 0.0
18:45 8.2 86.0 1016.9 0.0 E 6.4 0.0
18:50 8.1 86.0 1017.0 1.6 E 4.8 0.2
18:55 8.1 86.0 1017.0 3.2 NE 6.4 0.0
19:00 8.1 86.0 1017.0 8.0 ENE 16.1 0.0
19:05 8.1 86.0 1017.1 9.7 E 16.1 0.2
19:10 7.9 86.0 1017.2 3.2 ENE 14.5 0.0
19:15 7.9 86.0 1017.2 1.6 E 14.5 0.2
19:20 7.8 86.0 1017.2 6.4 ESE 11.3 0.0
19:25 7.8 86.0 1017.2 6.4 E 11.3 0.0
19:30 7.7 86.0 1017.3 9.7 E 11.3 0.2
19:35 7.7 87.0 1017.3 11.3 E 12.9 0.0
19:40 7.6 87.0 1017.3 4.8 E 14.5 0.0
19:45 7.7 87.0 1017.3 1.6 E 12.9 0.0
19:45 7.6 87.0 1017.3 1.6 E 12.9 0.0
19:55 7.5 87.0 1017.4 4.8 ESE 8.0 0.0
20:00 7.4 88.0 1017.4 3.2 NE 8.0 0.0
20:05 7.4 88.0 1017.3 4.8 E 8.0 0.0
20:10 7.4 88.0 1017.4 1.6 ENE 6.4 0.2
20:15 7.4 88.0 1017.4 1.6 ENE 4.8 0.0
20:20 7.3 88.0 1017.5 0.0 ENE 3.2 0.0
20:25 7.3 89.0 1017.4 1.6 ENE 4.8 0.0
20:30 7.3 89.0 1017.4 1.6 ENE 4.8 0.0
20:35 7.3 89.0 1017.5 1.6 ENE 3.2 0.0
20:40 7.2 89.0 1017.6 1.6 ENE 3.2 0.0
20:45 7.2 89.0 1017.5 1.6 ENE 3.2 0.0
20:45 7.3 89.0 1017.5 0.0 ENE 3.2 0.0
20:55 7.3 89.0 1017.6 1.6 NNE 3.2 0.0
21:00 7.3 90.0 1017.5 3.2 NE 4.8 0.0
21:05 7.3 90.0 1017.6 3.2 ENE 6.4 0.0
21:10 7.3 90.0 1017.6 1.6 ENE 8.0 0.0
21:15 7.3 90.0 1017.7 1.6 ENE 8.0 0.0
21:20 7.3 90.0 1017.6 1.6 NE 6.4 0.0
21:25 7.4 89.0 1017.6 1.6 NE 6.4 0.0
21:30 7.4 90.0 1017.6 3.2 ENE 6.4 0.0
21:35 7.3 90.0 1017.5 1.6 ENE 4.8 0.0
21:40 7.3 90.0 1017.6 1.6 ENE 4.8 0.0
21:45 7.3 90.0 1017.6 1.6 ENE 4.8 0.0
21:45 7.2 90.0 1017.6 1.6 ENE 4.8 0.0
21:55 7.3 90.0 1017.4 3.2 ENE 3.2 0.0
22:00 7.2 90.0 1017.4 1.6 ENE 3.2 0.0
22:05 7.2 90.0 1017.5 1.6 ENE 3.2 0.0
Màxima 11.0 91.0 1017.7 14.5 NE 22.5 0.2
Mínima 5.4 74.0 1015.0
Total 1.2